Theta_e
327 328 329 328 323 325 323 321 319 314 318 323 324 328 333 331 334 334 333 329 327 323 321 322 323 324 325 326 327 329 330 331 332 335 337 340 341 343
323 320 320 321 322 322 323 326 326 323 319 322 323 325 327 330 331 330 328 327 325 324 323 322 321 321 322 322 323 324 326 326 326 328 331 332 335 336
316 319 320 322 320 321 325 324 326 325 320 320 323 325 325 325 325 327 327 326 327 324 324 323 320 319 319 319 320 321 322 323 323 324 326 327 329 332
315 316 317 323 323 325 323 321 320 322 321 318 319 321 321 322 322 323 325 330 329 328 324 322 320 319 318 317 317 317 316 316 318 320 322 323 326 329
313 316 319 321 322 318 319 319 319 320 319 318 318 322 323 320 321 317 320 320 325 328 322 321 320 319 318 316 315 314 312 310 310 312 315 319 322 325
313 313 314 317 319 319 318 318 318 317 318 317 318 319 318 319 315 313 314 317 319 325 324 323 321 320 317 315 317 317 312 309 307 308 309 311 313 316
311 312 313 314 316 318 320 320 319 317 317 316 316 318 313 314 313 315 314 311 313 315 315 318 320 321 321 318 320 319 313 310 307 307 307 306 306 308
310 311 312 314 314 312 312 316 318 316 317 317 317 317 316 313 312 310 309 307 305 314 315 314 316 315 319 321 317 313 311 310 306 306 306 305 305 305
311 312 313 315 314 314 312 311 314 312 315 321 318 313 310 310 310 308 307 306 306 310 311 307 311 312 317 321 312 308 307 306 305 305 305 304 303 302
311 312 313 314 315 314 314 315 317 320 319 320 320 313 311 311 311 309 308 306 304 306 311 308 309 311 315 320 310 307 304 304 305 304 304 304 302 301
311 314 314 314 310 304 315 315 317 315 311 308 308 304 302 303 308 307 302 301 299 302 308 310 310 311 317 321 316 306 303 304 303 304 304 303 302 301
313 314 308 307 302 303 314 313 309 309 310 306 306 303 303 303 303 306 303 301 300 302 308 312 310 310 312 319 316 311 307 302 301 300 302 302 302 314
311 312 314 301 300 301 305 311 309 309 306 308 306 306 306 306 304 303 304 304 302 304 309 314 312 314 316 316 316 315 312 309 306 303 298 298 302 307
308 312 313 298 299 299 304 298 300 305 309 306 305 303 302 302 303 304 305 306 308 310 311 316 312 312 311 312 315 314 315 312 308 306 304 299 296 295
306 308 302 295 297 298 297 297 302 309 306 304 303 302 302 303 304 305 310 312 312 313 316 319 317 313 313 313 316 313 309 308 307 303 300 299 301 301
304 305 304 299 299 301 301 303 308 308 307 305 304 302 303 303 304 305 306 309 309 315 315 314 316 321 317 318 319 312 308 304 302 297 293 292 292 292
304 305 304 304 304 304 304 306 307 306 306 304 304 302 302 303 303 305 308 309 314 317 311 311 313 317 313 321 314 310 305 302 298 293 291 289 290 291
303 304 302 306 306 306 304 303 304 304 305 305 304 303 303 302 303 306 309 310 316 313 312 312 314 315 314 311 310 306 304 300 296 292 291 288 288 290
305 304 304 306 305 307 306 304 303 305 305 305 304 303 304 304 304 307 308 311 316 315 314 314 315 316 311 302 307 301 302 296 292 291 292 290 288 289
308 305 305 306 306 306 307 305 305 305 304 304 304 305 304 305 307 307 308 310 311 313 315 315 315 316 309 306 301 300 295 296 293 288 288 289 288 290
306 307 306 307 308 307 307 306 306 305 304 304 304 304 305 306 307 307 307 300 302 312 314 315 315 297 307 308 301 296 295 294 294 290 287 287 286 288
302 306 307 308 308 308 308 306 305 303 302 302 301 303 306 308 308 307 308 311 312 314 313 309 308 311 312 307 298 293 290 291 293 295 294 293 290 287
300 304 305 306 307 306 304 302 301 301 301 302 304 304 307 307 309 309 310 310 314 315 310 308 310 309 307 302 296 295 290 289 291 292 292 295 296 295
Wind_Speed
8 9 8 5 5 7 6 7 8 9 13 4 7 8 8 5 9 7 7 8 9 9 10 10 10 10 10 11 12 12 12 13 13 14 16 15 15 17
5 6 7 7 9 9 9 9 9 12 12 5 5 3 1 3 7 6 6 7 11 10 9 10 10 10 11 13 13 13 13 14 14 14 15 14 15 14
5 7 9 9 8 8 7 6 7 6 6 4 4 2 3 5 6 5 3 5 3 7 11 11 9 11 10 9 10 12 12 13 13 13 13 13 14 11
9 6 8 6 8 8 7 7 6 5 5 8 2 3 3 2 4 5 4 3 4 6 10 11 11 10 8 9 11 13 13 12 12 12 12 8 10 11
9 9 8 7 8 6 6 6 5 5 7 6 11 5 4 1 5 2 4 2 3 7 10 12 12 10 7 6 9 11 12 11 11 9 8 9 10 11
10 11 11 10 10 11 10 11 8 8 8 9 8 6 4 4 3 3 2 0 2 1 4 6 8 8 5 5 7 11 9 10 9 7 9 10 9 9
11 12 13 15 17 14 11 14 13 11 8 9 8 4 3 3 5 4 3 2 2 1 2 3 2 2 2 3 7 10 8 9 8 8 9 10 10 10
12 13 14 19 20 24 27 28 19 14 15 11 9 10 9 5 3 4 3 2 2 2 3 3 2 4 4 3 6 7 6 7 5 6 12 11 11 10
13 14 14 14 21 21 24 29 26 20 17 14 12 7 6 7 6 5 3 3 4 3 1 4 2 4 3 3 6 7 7 7 7 7 13 8 9 9
15 16 16 18 21 26 26 24 23 19 17 10 11 9 5 7 6 6 5 2 2 4 4 3 2 3 2 1 7 3 7 7 9 9 10 11 8 8
13 14 14 17 23 28 24 23 17 10 6 7 8 9 11 11 8 5 2 2 3 4 4 3 2 1 2 2 4 6 7 9 9 10 10 10 10 11
9 11 14 15 10 11 11 14 14 13 13 8 6 6 8 6 9 5 6 4 3 3 4 4 2 1 2 3 3 3 4 6 10 10 10 8 10 7
6 6 7 6 5 9 15 13 15 13 10 8 6 4 4 4 3 4 6 5 4 5 4 3 2 2 2 2 3 3 1 3 4 8 15 11 8 10
8 5 7 14 10 7 11 14 17 13 8 7 5 4 3 3 4 5 6 6 5 6 2 5 4 4 3 3 3 3 1 3 6 7 8 13 24 22
5 11 6 12 16 8 12 15 12 7 7 4 4 4 3 3 0 3 4 4 5 5 6 7 6 5 4 4 5 5 4 3 4 8 6 7 6 4
7 8 4 7 1 7 7 5 5 6 6 5 3 3 3 2 0 2 2 2 1 3 2 1 5 9 5 5 6 6 5 5 5 7 8 8 8 7
5 2 4 6 4 4 5 4 4 5 4 4 3 3 2 1 2 2 2 2 4 2 0 2 3 6 7 3 5 9 8 8 7 8 10 10 8 6
3 4 3 7 6 6 5 4 3 4 4 4 3 3 2 2 2 1 3 2 3 2 2 2 3 4 4 9 9 11 8 10 7 8 8 12 7 5
6 3 4 7 5 6 6 5 5 4 3 3 3 3 3 2 0 3 3 2 3 3 3 2 1 2 3 3 3 13 13 9 9 9 5 6 8 6
4 3 4 5 5 5 5 4 4 5 3 4 4 3 3 3 3 4 4 4 3 2 3 2 2 2 4 5 5 4 14 14 10 10 8 6 6 10
2 3 3 3 5 5 5 4 5 4 4 4 3 3 3 4 4 4 4 5 4 3 3 3 2 7 9 7 8 4 5 13 7 12 11 9 5 3
3 3 3 4 4 5 4 4 4 4 4 3 2 4 5 5 4 5 5 4 5 3 3 3 4 5 5 5 10 9 7 9 11 13 9 1 5 6
3 3 4 5 4 4 5 4 5 5 4 4 4 2 3 3 4 4 4 4 3 4 6 3 3 2 6 8 13 10 14 12 8 3 4 5 7 13
Wind_Direction
235 241 245 236 212 226 233 207 215 246 251 223 238 248 242 211 216 199 215 187 204 229 235 239 252 249 246 249 251 241 235 243 244 247 254 254 252 239
251 234 231 231 221 220 220 225 218 229 247 211 226 264 115 268 261 204 205 178 211 213 234 248 245 243 240 244 248 248 248 243 243 242 245 248 251 244
270 251 245 222 212 215 210 208 210 211 212 235 197 206 275 249 293 264 224 231 228 221 238 254 253 252 243 238 244 250 246 244 242 241 245 244 243 233
286 271 258 254 239 210 192 179 167 207 203 230 288 260 268 262 253 239 245 217 240 264 269 265 258 253 258 273 276 277 273 260 241 237 242 241 230 229
260 267 263 244 218 190 182 193 210 200 210 177 227 233 262 229 257 286 247 265 261 256 259 259 264 256 254 253 274 280 281 277 252 232 226 228 220 200
239 248 254 241 235 214 212 212 210 216 211 213 199 217 198 208 216 216 241 207 269 284 269 279 286 294 269 260 274 271 274 272 253 221 212 219 194 158
244 245 242 242 238 232 230 230 225 226 213 208 215 193 162 195 196 185 173 202 290 257 309 299 320 317 304 239 251 264 277 279 249 214 172 141 120 113
248 247 241 243 239 237 235 238 239 217 208 216 199 217 199 186 160 153 143 139 255 253 190 253 215 287 277 270 230 227 252 241 186 165 125 126 130 132
245 247 247 249 243 241 240 233 224 203 204 202 199 182 180 172 150 155 163 159 198 250 189 264 223 274 270 281 288 196 188 207 151 144 120 132 131 132
251 250 250 261 257 240 238 225 210 203 205 191 194 195 157 155 147 152 159 163 311 276 176 229 246 251 327 73 38 198 181 201 155 143 135 137 136 137
258 252 264 284 273 251 201 191 179 152 141 160 165 150 142 146 137 106 130 117 267 263 223 156 261 183 94 38 26 343 162 173 161 149 131 129 126 110
257 267 292 288 264 103 129 139 145 139 162 137 119 110 129 142 158 161 156 169 189 296 241 165 194 180 109 109 72 27 85 79 92 83 93 115 137 118
269 280 291 315 276 130 128 138 157 149 134 132 120 124 128 139 188 200 195 171 179 229 235 172 180 133 112 143 107 108 143 132 88 72 65 68 97 120
304 261 268 162 227 186 155 134 127 123 128 124 127 134 137 204 228 215 210 213 220 212 172 185 218 156 164 172 132 106 140 73 105 106 94 80 74 70
284 269 263 181 180 185 132 132 113 117 121 117 142 163 165 186 345 311 259 232 235 240 236 205 197 174 185 185 133 140 149 65 75 88 64 56 63 71
265 253 201 152 203 119 95 94 114 134 143 152 159 140 119 112 160 208 295 217 251 228 187 161 244 206 200 199 138 147 144 128 85 86 91 71 61 61
282 210 132 127 145 126 100 122 115 119 135 154 139 136 126 132 240 193 244 240 224 249 332 25 19 108 74 133 124 135 126 109 108 115 99 86 57 60
269 231 144 147 172 152 139 133 129 148 174 174 147 137 174 213 250 248 230 239 258 176 156 179 176 110 87 58 50 120 108 110 112 105 106 107 87 57
224 189 154 151 164 153 149 149 173 181 151 167 157 176 201 225 210 242 231 241 191 168 166 163 205 128 142 99 66 21 125 120 116 95 78 91 121 107
225 160 151 138 150 144 141 143 143 146 155 151 172 186 212 204 175 231 212 220 194 183 158 154 236 87 123 149 113 49 34 132 127 118 115 93 73 103
236 175 141 148 147 131 142 142 138 143 141 153 179 165 199 194 213 216 213 222 195 184 147 165 105 97 114 117 101 84 36 56 79 136 136 118 116 116
286 187 165 133 142 148 151 139 136 138 137 154 170 197 212 200 198 208 205 202 216 189 126 116 145 133 150 127 126 118 110 93 78 80 58 62 164 159
261 202 170 154 169 157 133 171 135 123 150 186 184 200 196 175 202 220 216 198 206 141 131 120 132 75 106 130 127 123 120 130 141 112 33 6 118 106